Location: Grand Lay
(47.3253°N, 0.9468°E)
Time: 10:22:11
(UTC+00:00)

NOSS 2-2 (C) - Pass Details

Date: 18 January 2026
Orbit: 379 x 1692 km, 63.3° (Epoch: 19 February)

Event Time Altitude Azimuth Distance (km) Brightness Sun altitude
Rises 06:19:05 0° 209° (SSW) 2,598 6.6 -12.9°
Reaches altitude 10° 06:21:26 10° 204° (SSW) 1,588 5.6 -12.5°
Maximum altitude 06:24:44 53° 127° (SE) 504 3.5 -12.0°
Drops below altitude 10° 06:27:40 10° 49° (NE) 1,408 5.8 -11.5°
Sets 06:29:38 0° 44° (NE) 2,261 6.8 -11.2°
